Tracking 18980 objects as of 22-Feb-2018
HD Live streaming from Space Station
objects crossing your sky now

H-2A R/B

Track H-2A R/B now!
10-day predictions


NORAD ID: 36105
Int'l Code: 2009-066B
Perigee: 512.5 km
Apogee: 550.7 km
Inclination: 97.3 °
Period: 95.1 minutes
Semi major axis: 6902 km
RCS: Unknown
Launch date: November 28, 2009
Source: Japan (JPN)
Launch site: TANEGASHIMA SPACE CENTER (TNSTA)

Note: This is a ROCKET BODY
aabbcc
Your satellite tracking list
Your tracking list is empty




NASA's NSSDC Master Catalog

Two Line Element Set (TLE):
1 36105U 09066B   18049.75988019 0.00000600  00000-0  32927-4 0    01
2 36105  97.3157  76.9674 0027660 204.3950 155.6049 15.13863423    08
Source of the keplerian elements: McCants